Weather History for Watonga, OK

Change the Weather History Date:

Friday, September 6, 2013

  Actual Average Record
Temperature  
Mean Temperature 82 °F -  
Max Temperature 97 °F 89 °F 102 °F (1983)
Min Temperature 69 °F 65 °F 51 °F (1988)
Cooling Degree Days 18    
Growing Degree Days 32 (Base 50)    
Moisture  
Dew Point 65 °F    
Average Humidity 58    
Maximum Humidity 83    
Minimum Humidity 35    
Precipitation  
Precipitation 0.00 in - - ()
Sea Level Pressure  
Sea Level Pressure 30.07 in    
Wind  
Wind Speed 0 mph (North)    
Max Wind Speed 0 mph    
Max Gust Speed -    
Visibility 10 miles    
Events      
Averages and records for this station are not official NWS values.
T = Trace of Precipitation, MM = Missing Value Source: NWS Daily Summary

Daily Weather History Graph

Daily Weather History Graph

Search for Another Location

Airport:

Trip Planner

Search our weather history database for the weather conditions in past years. The results will help you decide how hot, cold, wet, or windy it might be!

Date:

Astronomy

Sep. 06, 2013 Rise Set
Actual Time 7:09 AM CDT 7:53 PM CDT
Civil Twilight 6:43 AM CDT 8:19 PM CDT
Nautical Twilight 6:13 AM CDT 8:50 PM CDT
Astronomical Twilight 5:41 AM CDT 9:21 PM CDT
Moon 8:19 AM CDT (9/6) 8:23 PM CDT (9/6)
Length of Visible Light 13h 35m
Length of Day
12h 43m
New Moon, 2% of the Moon is Illuminated
Sep 6
New Moon
Sep 12
First Quarter
Sep 19
Full
Sep 26
Last Quarter
Oct 4
New

Hourly Weather History & Observations

Time (CDT) Temp. Heat Index Dew Point Humidity Pressure Visibility Wind Dir Wind Speed Gust Speed Precip Events Conditions
12:15 AM 76.5 °F - 65.8 °F 70% 30.12 in 10.0 mi Calm Calm - N/A   Clear
12:35 AM 76.8 °F - 65.8 °F 69% 30.12 in 10.0 mi Calm Calm - N/A   Clear
12:55 AM 76.5 °F - 65.8 °F 70% 30.12 in 10.0 mi Calm Calm - N/A   Clear
1:15 AM 76.1 °F - 65.7 °F 70% 30.12 in 10.0 mi Calm Calm - N/A   Clear
1:35 AM 75.4 °F - 65.7 °F 72% 30.12 in 10.0 mi Calm Calm - N/A   Clear
1:55 AM 74.3 °F - 65.5 °F 74% 30.12 in 10.0 mi Calm Calm - N/A   Clear
2:15 AM 73.8 °F - 65.3 °F 75% 30.12 in 10.0 mi Calm Calm - N/A   Clear
2:35 AM 73.4 °F - 65.3 °F 76% 30.12 in 10.0 mi Calm Calm - N/A   Clear
2:55 AM 72.9 °F - 65.3 °F 77% 30.12 in 10.0 mi Calm Calm - N/A   Clear
3:15 AM 72.7 °F - 65.3 °F 78% 30.11 in 10.0 mi Calm Calm - N/A   Clear
3:35 AM 73.0 °F - 64.9 °F 76% 30.11 in 10.0 mi Calm Calm - N/A   Clear
3:55 AM 72.7 °F - 64.8 °F 76% 30.11 in 10.0 mi Calm Calm - N/A   Clear
4:15 AM 72.0 °F - 64.6 °F 77% 30.10 in 10.0 mi Calm Calm - N/A   Clear
4:35 AM 71.6 °F - 64.6 °F 78% 30.10 in 10.0 mi Calm Calm - N/A   Clear
4:55 AM 71.6 °F - 64.4 °F 78% 30.10 in 10.0 mi Calm Calm - N/A   Clear
5:15 AM 71.2 °F - 64.4 °F 79% 30.10 in 10.0 mi Calm Calm - N/A   Clear
5:35 AM 71.8 °F - 64.4 °F 77% 30.11 in 10.0 mi Calm Calm - N/A   Clear
5:55 AM 70.7 °F - 64.2 °F 80% 30.11 in 10.0 mi Calm Calm - N/A   Clear
6:15 AM 70.7 °F - 64.0 °F 79% 30.11 in 10.0 mi Calm Calm - N/A   Clear
6:35 AM 70.5 °F - 64.2 °F 80% 30.11 in 10.0 mi Calm Calm - N/A   Clear
6:55 AM 69.8 °F - 64.4 °F 83% 30.11 in 10.0 mi Calm Calm - N/A   Clear
7:15 AM 70.7 °F - 64.2 °F 80% 30.12 in 10.0 mi Calm Calm - N/A   Clear
7:35 AM 70.5 °F - 64.0 °F 80% 30.12 in 10.0 mi Calm Calm - N/A   Clear
7:55 AM 70.9 °F - 64.4 °F 80% 30.12 in 10.0 mi Calm Calm - N/A   Clear
8:15 AM 72.5 °F - 64.4 °F 76% 30.12 in 10.0 mi Calm Calm - N/A   Clear
8:35 AM 74.1 °F - 64.4 °F 72% 30.12 in 10.0 mi Calm Calm - N/A   Clear
8:55 AM 76.1 °F - 65.1 °F 69% 30.12 in 10.0 mi Calm Calm - N/A   Clear
9:15 AM 78.6 °F - 64.9 °F 63% 30.12 in 10.0 mi Calm Calm - N/A   Clear
9:35 AM 80.6 °F 82.4 °F 65.1 °F 59% 30.12 in 10.0 mi Calm Calm - N/A   Clear
9:55 AM 82.0 °F 83.9 °F 65.5 °F 57% 30.12 in 10.0 mi Calm Calm - N/A   Clear
10:15 AM 83.3 °F 85.3 °F 65.7 °F 55% 30.12 in 10.0 mi Calm Calm - N/A   Clear
10:35 AM 84.9 °F 87.4 °F 66.4 °F 54% 30.12 in 10.0 mi Calm Calm - N/A   Clear
10:55 AM 86.0 °F 88.8 °F 66.9 °F 53% 30.12 in 10.0 mi Calm Calm - N/A   Clear
11:15 AM 87.1 °F 90.2 °F 67.3 °F 52% 30.12 in 10.0 mi Calm Calm - N/A   Clear
11:35 AM 88.2 °F 91.3 °F 67.6 °F 50% 30.12 in 10.0 mi Calm Calm - N/A   Clear
11:55 AM 89.1 °F 92.1 °F 67.3 °F 48% 30.12 in 10.0 mi Calm Calm - N/A   Clear
12:15 PM 90.3 °F 93.9 °F 67.3 °F 47% 30.11 in 10.0 mi Calm Calm - N/A   Clear
12:35 PM 91.2 °F 94.6 °F 67.3 °F 45% 30.11 in 10.0 mi Calm Calm - N/A   Clear
12:55 PM 92.3 °F 96.1 °F 67.3 °F 44% 30.10 in 10.0 mi Calm Calm - N/A   Clear
1:15 PM 93.0 °F 96.4 °F 66.6 °F 42% 30.09 in 10.0 mi Calm Calm - N/A   Clear
1:35 PM 93.6 °F 96.9 °F 66.6 °F 41% 30.09 in 10.0 mi Calm Calm - N/A   Clear
1:55 PM 94.6 °F 97.8 °F 66.0 °F 39% 30.08 in 10.0 mi Calm Calm - N/A   Clear
2:15 PM 94.8 °F 97.6 °F 65.5 °F 38% 30.07 in 10.0 mi Calm Calm - N/A   Clear
2:35 PM 95.5 °F 98.9 °F 65.8 °F 38% 30.07 in 10.0 mi Calm Calm - N/A   Clear
2:55 PM 95.7 °F 98.7 °F 65.3 °F 37% 30.06 in 10.0 mi Calm Calm - N/A   Scattered Clouds
3:15 PM 96.4 °F 99.4 °F 65.7 °F 36% 30.06 in 10.0 mi Calm Calm - N/A   Scattered Clouds
3:35 PM 96.3 °F 99.1 °F 64.9 °F 36% 30.04 in 10.0 mi Calm Calm - N/A   Scattered Clouds
3:55 PM 96.4 °F 99.4 °F 65.8 °F 36% 30.03 in 10.0 mi Calm Calm - N/A   Clear
4:15 PM 96.3 °F 99.7 °F 65.8 °F 37% 30.03 in 10.0 mi Calm Calm - N/A   Clear
4:35 PM 96.8 °F 99.5 °F 65.1 °F 35% 30.02 in 10.0 mi Calm Calm - N/A   Clear
4:55 PM 96.3 °F 99.1 °F 64.9 °F 36% 30.02 in 10.0 mi Calm Calm - N/A   Clear
5:15 PM 96.4 °F 99.4 °F 65.3 °F 36% 30.01 in 10.0 mi Calm Calm - N/A   Clear
5:35 PM 95.9 °F 98.0 °F 64.6 °F 35% 30.01 in 10.0 mi Calm Calm - N/A   Clear
5:55 PM 95.9 °F 98.5 °F 64.9 °F 36% 30.01 in 10.0 mi Calm Calm - N/A   Clear
6:15 PM 95.4 °F 98.1 °F 65.5 °F 37% 30.01 in 10.0 mi Calm Calm - N/A   Clear
6:35 PM 94.3 °F 96.7 °F 65.3 °F 38% 30.01 in 10.0 mi Calm Calm - N/A   Clear
6:55 PM 93.6 °F 95.9 °F 65.3 °F 39% 30.00 in 10.0 mi Calm Calm - N/A   Clear
7:15 PM 92.5 °F 94.6 °F 64.9 °F 40% 30.00 in 10.0 mi Calm Calm - N/A   Clear
7:35 PM 91.0 °F 93.0 °F 64.8 °F 42% 30.00 in 10.0 mi Calm Calm - N/A   Clear
7:55 PM 89.8 °F 91.8 °F 64.9 °F 44% 30.00 in 10.0 mi Calm Calm - N/A   Clear
8:15 PM 88.2 °F 90.3 °F 65.5 °F 47% 30.00 in 10.0 mi Calm Calm - N/A   Clear
8:35 PM 86.4 °F 88.7 °F 66.4 °F 51% 30.01 in 10.0 mi Calm Calm - N/A   Clear
8:55 PM 86.2 °F 88.4 °F 66.2 °F 51% 30.01 in 10.0 mi Calm Calm - N/A   Clear
9:15 PM 85.5 °F 87.6 °F 66.2 °F 52% 30.02 in 10.0 mi Calm Calm - N/A   Clear
9:35 PM 85.1 °F 87.1 °F 65.7 °F 52% 30.02 in 10.0 mi Calm Calm - N/A   Clear
9:55 PM 83.5 °F 85.5 °F 65.8 °F 55% 30.02 in 10.0 mi Calm Calm - N/A   Clear
10:15 PM 82.4 °F 84.4 °F 65.8 °F 57% 30.02 in 10.0 mi Calm Calm - N/A   Clear
10:35 PM 81.9 °F 83.9 °F 65.8 °F 58% 30.02 in 10.0 mi Calm Calm - N/A   Clear
10:55 PM 81.5 °F 83.7 °F 66.2 °F 60% 30.02 in 10.0 mi Calm Calm - N/A   Clear
11:15 PM 80.8 °F 82.9 °F 66.4 °F 61% 30.02 in 10.0 mi Calm Calm - N/A   Clear
11:35 PM 80.8 °F 82.9 °F 66.4 °F 61% 30.02 in 10.0 mi Calm Calm - N/A   Clear
11:55 PM 80.2 °F 82.3 °F 66.2 °F 62% 30.02 in 10.0 mi Calm Calm - N/A   Clear